Home > Weather > Chiclayo > Past weeks

Flag for Peru Past Weather in Chiclayo, Lambayeque, Peru — Yesterday and Last 2 Weeks

Now
77 °F

Passing clouds.


Feels Like: 79 °F
Forecast: 64 / 74 °F
Wind: 17 mph from Southwest

Location: Chiclayo Airport

Current Time: Aug 26, 2016 at 1:53:47 PM

Latest Report: Aug 26, 2016 at 1:00 PM


Visibility: N/A

Pressure: 29.92 "Hg

Humidity: 61%

Dew Point: 63 °F

Location of ChiclayoLocation

Past Weather in Chiclayo — Graph

°F

Chiclayo Temperature Yesterday

Maximum temperature yesterday: 75 °F (at 1:00 PM)
Minimum temperature yesterday: 63 °F (at 3:00 AM)
Average temperature yesterday: 68 °F

High & Low Weather Summary for the Past Weeks

 TemperatureHumidityPressure
High77 °F (Aug 12, 1:00 PM)100% (Aug 14, 1:00 AM)30.01 "Hg (Aug 14, 1:00 AM)
Low61 °F (Aug 15, 5:00 AM)61% (Aug 12, 1:00 PM)29.80 "Hg (Aug 14, 4:00 PM)
Average68 °F82%29.91 "Hg
* Reported Aug 11 12:00 PM — Aug 26 12:00 PM, Chiclayo, Weather by CustomWeather, © 2016

Note: Actual official high and low records may vary slightly from our data, if they occured in-between our weather recording intervals... More about our weather records

Advertising

Chiclayo Weather History for the Previous 24 Hours

Scroll right to see more
 ConditionsComfort  
Time TempWeatherWind HumidityBarometerVisibility
12:00 PM
Fri, Aug 26
75 °FPassing clouds.13 mph65%29.95 "HgN/A
11:00 AM75 °FScattered clouds.12 mph69%29.95 "HgN/A
10:00 AM72 °FPartly sunny.12 mph78%29.98 "HgN/A
9:00 AM70 °FSunny.14 mph78%29.98 "Hg10 mi
8:00 AM68 °FSunny.10 mph83%29.98 "Hg10 mi
7:00 AM64 °FSunny.5 mph94%29.95 "Hg10 mi
6:00 AM63 °FClear.5 mph100%29.95 "Hg10 mi
5:00 AM63 °FClear.7 mph100%29.92 "Hg10 mi
4:00 AM64 °FClear.8 mph94%29.92 "Hg10 mi
3:00 AM64 °FClear.7 mph94%29.95 "Hg10 mi
2:00 AM64 °FClear.9 mph94%29.95 "Hg10 mi
1:00 AM64 °FClear.13 mph94%29.95 "Hg10 mi
12:00 AM64 °FPassing clouds.14 mph94%29.95 "HgN/A
11:00 PM
Thu, Aug 25
64 °FPassing clouds.14 mph94%29.95 "HgN/A
10:00 PM66 °FClear.14 mph88%29.95 "Hg10 mi
9:00 PM66 °FClear.14 mph88%29.92 "Hg10 mi
8:00 PM66 °FClear.15 mph88%29.89 "Hg10 mi
7:00 PM68 °FClear.17 mph83%29.89 "Hg10 mi
6:00 PM70 °FSunny.18 mph78%29.86 "Hg10 mi
5:00 PM72 °FSunny.21 mph73%29.86 "Hg10 mi
4:00 PM72 °FPassing clouds.21 mph73%29.86 "HgN/A
3:00 PM73 °FSunny.18 mph69%29.86 "Hg10 mi
2:00 PM73 °FSunny.16 mph69%29.86 "Hg10 mi
1:00 PM75 °FPassing clouds.15 mph65%29.89 "HgN/A
Weather by CustomWeather, © 2016

See weather overviewHow to use our weather pages